W5JXT Weather Reports


time (UTC)temp
C
wind
direction
speed
KPH
gust
KPH
rain 1hr
cm
rain 24hr
cm
rain mn
cm
humidity
%
barometer
mb
20260507203000 21 259 0.0 4.8 0.00 0.00 0.00 38 1017.6
20260507201501 21 195 1.6 11.3 0.00 0.00 0.00 38 1017.9
20260507200000 21 262 1.6 9.7 0.00 0.00 0.00 39 1018.2
20260507194500 20 272 0.0 8.0 0.00 0.00 0.00 40 1018.6
20260507193001 20 163 1.6 9.7 0.00 0.00 0.00 41 1018.7
20260507191459 20 210 0.0 8.0 0.00 0.00 0.00 42 1018.9
20260507190003 19 150 1.6 9.7 0.00 0.00 0.00 44 1019.2
20260507184500 19 141 1.6 11.3 0.00 0.00 0.00 42 1019.6
20260507183000 18 123 1.6 6.4 0.00 0.00 0.00 45 1020.0
20260507181500 17 113 0.0 6.4 0.00 0.00 0.00 48 1020.3
20260507180003 18 128 0.0 4.8 0.00 0.00 0.00 46 1020.4
20260507174500 17 178 0.0 9.7 0.00 0.00 0.00 48 1020.7
20260507172959 16 150 1.6 9.7 0.00 0.00 0.00 51 1020.9
20260507171459 16 288 0.0 3.2 0.00 0.00 0.00 52 1021.1
20260507164501 15 212 0.0 8.0 0.00 0.00 0.00 54 1021.6
20260507163001 13 7 0.0 3.2 0.00 0.00 0.00 55 1021.8
20260507161500 13 204 0.0 1.6 0.00 0.00 0.00 54 1022.2
20260507151459 11 351 0.0 4.8 0.00 0.00 0.00 62 1023.2
20260507144500 10 59 0.0 8.0 0.00 0.00 0.00 66 1023.4
20260507143000 9 46 0.0 8.0 0.00 0.00 0.00 67 1023.5
20260507141501 8 46 0.0 6.4 0.00 0.00 0.00 68 1023.7
20260507140001 8 16 0.0 9.7 0.00 0.00 0.00 70 1023.7
20260507134501 8 350 1.6 12.9 0.00 0.00 0.00 70 1023.7
20260507133000 8 39 0.0 4.8 0.00 0.00 0.00 71 1023.7
20260507130002 7 39 0.0 0.0 0.00 0.00 0.00 73 1023.5
20260507124459 7 342 0.0 0.0 0.00 0.00 0.00 73 1023.4
20260507123001 6 24 0.0 1.6 0.00 0.00 0.00 75 1023.1
20260507121459 6 42 0.0 0.0 0.00 0.00 0.00 75 1023.2
20260507120002 6 13 0.0 0.0 0.00 0.00 0.00 75 1023.2
20260507114459 6 314 0.0 0.0 0.00 0.00 0.00 74 1023.0
20260507113001 7 314 0.0 0.0 0.00 0.00 0.00 73 1022.9
20260507104500 7 324 0.0 0.0 0.00 0.00 0.00 73 1022.8
20260507102959 7 27 0.0 0.0 0.00 0.00 0.00 73 1022.9
20260507100001 7 304 0.0 0.0 0.00 0.00 0.00 71 1022.8
20260507094459 8 307 0.0 0.0 0.00 0.00 0.00 70 1022.6
20260507092959 8 293 0.0 0.0 0.00 0.00 0.00 70 1022.6
20260507091459 8 22 0.0 1.6 0.00 0.00 0.00 70 1022.6
20260507090001 8 13 0.0 8.0 0.00 0.00 0.00 69 1022.4
20260507082959 8 323 0.0 11.3 0.00 0.00 0.00 68 1022.0
20260507081500 8 347 0.0 9.7 0.00 0.00 0.00 68 1022.0
20260507080001 8 290 0.0 11.3 0.00 0.00 0.00 68 1022.1
20260507074459 8 91 0.0 9.7 0.00 0.00 0.00 68 1022.2
20260507073000 9 295 1.6 14.5 0.00 0.00 0.00 67 1022.2
20260507071459 9 330 1.6 17.7 0.00 0.00 0.00 67 1022.2
20260507064501 9 29 1.6 17.7 0.00 0.00 0.00 66 1021.9
20260507063001 9 266 1.6 16.1 0.00 0.00 0.00 65 1022.0
20260507060000 10 269 4.8 20.9 0.00 0.00 0.00 64 1021.7
20260507054500 10 209 3.2 20.9 0.00 0.00 0.00 63 1021.5
20260507053000 10 351 3.2 16.1 0.00 0.00 0.00 63 1021.4
20260507051500 10 347 3.2 22.5 0.00 0.00 0.00 63 1021.2
20260507044500 11 34 8.0 29.0 0.00 0.00 0.00 62 1020.1
20260507043000 11 16 8.0 38.6 0.00 0.00 0.00 61 1019.7
20260507041500 12 51 12.9 33.8 0.00 0.00 0.00 59 1019.4
20260507040002 13 19 16.1 40.2 0.00 0.00 0.00 57 1019.1
20260507034501 13 281 11.3 32.2 0.00 0.00 0.00 55 1018.2
20260507033000 15 291 12.9 43.5 0.00 0.00 0.00 49 1017.4
20260507031502 18 10 4.8 25.7 0.00 0.00 0.00 35 1016.7
20260507030003 20 251 0.0 1.6 0.00 0.00 0.00 22 1015.0
20260507024501 21 219 0.0 4.8 0.00 0.00 0.00 20 1014.6
20260507023002 21 226 0.0 3.2 0.00 0.00 0.00 20 1014.3
20260507021501 21 246 0.0 1.6 0.00 0.00 0.00 20 1014.2
20260507020001 22 231 0.0 1.6 0.00 0.00 0.00 17 1013.9
20260507014500 23 211 0.0 0.0 0.00 0.00 0.00 16 1013.7
20260507013000 23 329 0.0 3.2 0.00 0.00 0.00 15 1013.5
20260507011459 24 231 0.0 8.0 0.00 0.00 0.00 14 1013.2
20260507010003 25 254 0.0 6.4 0.00 0.00 0.00 13 1013.0
20260507004501 25 285 1.6 8.0 0.00 0.00 0.00 13 1012.7
20260507001501 26 264 0.0 1.6 0.00 0.00 0.00 13 1012.2
20260507000003 27 323 0.0 6.4 0.00 0.00 0.00 14 1012.2
20260506224500 26 232 0.0 8.0 0.00 0.00 0.00 19 1011.9
20260506223000 26 210 1.6 9.7 0.00 0.00 0.00 19 1011.9
20260506221459 26 269 1.6 12.9 0.00 0.00 0.00 20 1012.0
20260506220003 26 88 3.2 11.3 0.00 0.00 0.00 21 1012.2
20260506214502 25 238 1.6 11.3 0.00 0.00 0.00 22 1012.3
20260506213000 26 89 1.6 9.7 0.00 0.00 0.00 22 1012.5
20260506211502 25 275 3.2 14.5 0.00 0.00 0.00 24 1012.7
20260506204501 25 153 3.2 14.5 0.00 0.00 0.00 24 1013.0